Simultaneous Nadir Overpasses (SNOs) Predictions

Prediction of SNOs between NOAA-20 and AQUA Satellite Orbit:

Table of predicted SNOs for the next 14.0 days since TLE Epoch: 1/20/2024
Index Date (NOAA-20) Time (NOAA-20) Lat,Lon (NOAA-20) SZA (NOAA-20 ) Date (AQUA) Time (AQUA) Lat,Lon (AQUA) SZA (AQUA ) Distance(km) Time Diff (sec)
1 01/22/2024 10:52:00 -81.06, 114.59 71.26 01/22/2024 10:52:11 -81.06, 114.58 71.26 0.47 11
2 01/22/2024 11:42:42 81.10, -77.01 108.58 01/22/2024 11:41:32 81.10, -77.05 108.63 0.76 70
3 01/24/2024 23:45:59 -81.04, -79.50 71.73 01/24/2024 23:46:42 -81.04, -79.31 71.79 3.25 43
4 01/25/2024 00:36:41 81.08, 88.88 108.11 01/25/2024 00:36:03 81.08, 89.03 108.11 2.77 38
5 01/27/2024 12:40:22 -80.55, 77.93 70.91 01/27/2024 12:41:36 -80.35, 78.57 71.06 25.66 74
6 01/27/2024 13:30:38 81.08,-104.55 107.50 01/27/2024 13:30:32 81.07,-104.69 107.52 2.51 6
7 01/30/2024 02:24:34 81.08, 61.96 106.86 01/30/2024 02:24:58 81.07, 61.78 106.87 3.21 24
8 01/30/2024 03:15:17 -81.11,-129.93 73.28 01/30/2024 03:14:20 -81.10,-130.07 73.22 2.48 57
9 02/01/2024 15:18:32 81.06,-131.96 106.24 02/01/2024 15:19:24 81.07,-131.93 106.20 0.65 52



Historial Predications of SNOs between NOAA-20 and AQUA
